Location: Augirein
(42.9320°N, 0.9181°E)
Time: 00:40:16
(UTC+00:00)

FALCON 9 DEB - Pass Details

Date: 20 June 2021
Orbit: 358 x 375 km, 53.0° (Epoch: 04 August)

Event Time Altitude Azimuth Distance (km) Brightness Sun altitude
Rises 02:35:25 0° 309° (NW) 2,263 6.8 -14.4°
Reaches altitude 10° 02:37:33 10° 316° (NW) 1,404 5.8 -14.1°
Maximum altitude 02:40:33 42° 30° (NNE) 554 4.2 -13.8°
Drops below altitude 10° 02:43:32 10° 103° (ESE) 1,386 6.0 -13.5°
Sets 02:45:37 0° 111° (ESE) 2,229 7.0 -13.2°
